User: anonymous   Login
Location: Brunsen
(51.8651°N, 9.8610°E)
Time: 18:19:58
(UTC+00:00)
Language:

Meteor 1-21 - Orbit

View from above orbital plane
View from above orbital plane
View from above satellite
View from above satellite

Ground track
Ground track

The orbit data is extracted from the following two-line orbital elements,

1 07714U 75023A   24201.68644259  .00000187  00000-0  10152-3 0  9997
2 07714  81.2066 190.0301 0030093 158.3248 201.9203 14.08285527849352
Epoch (UTC): 19 July 2024 16:28:28
Eccentricity: 0.0030093
inclination: 81.2066°
perigee height: 843 km
apogee height: 887 km
right ascension of ascending node: 190.0301°
argument of perigee: 158.3248°
revolutions per day: 14.08285527
mean anomaly at epoch: 201.9203°
orbit number at epoch: 84935

The dashed part of the orbit path shows where the satellite is in the earth's shadow,  

DLR